Regional Weather Roundup
Issued by NWS

Home | Current Version | Previous Version | Graphics & Text | Print | Product List | Glossary On
Versions: 1 2 3 4 5 6 7 8 9 10 11 12 13 14 15 16 17 18 19 20 21 22 23 24 25 26 27 28 29 30 31 32 33 34 35 36 37 38 39 40 41 42 43 44 45 46 47 48 49 50
000
ASUS43 KLSX 261110
RWRMO

WEATHER SUMMARY FOR MISSOURI
NATIONAL WEATHER SERVICE SPRINGFIELD MO
600 AM CDT FRI AUG 26 2016

NOTE: "FAIR" INDICATES FEW OR NO CLOUDS BELOW 12,000 FEET WITH NO
       SIGNIFICANT WEATHER AND/OR OBSTRUCTIONS TO VISIBILITY.
       CURRENT SKY AND/OR WEATHER CONDITIONS ARE NOT AVAILABLE FOR
       CHILLICOTHE AND FARMINGTON.

MOZ001>031-035>038-043-044-053-054-261200-
...NORTHERN AND WESTERN MISSOURI...

CITY           SKY/WX    TMP DP  RH WIND       PRES   REMARKS
KANSAS CTY INT LGT RAIN  68  65  90 N6        30.11R
KANSAS C DTWN  FAIR      70  68  93 CALM      30.09R
LEE`S SUMMIT   FAIR      69  68  96 CALM      30.10R
ST JOSEPH      LGT RAIN  67  65  93 CALM      30.13R
KIRKSVILLE     FAIR      67  65  93 N6        30.14R

$$
MOZ066>068-077>081-088>096-101>105-261200-
...SOUTHWEST MISSOURI...

CITY           SKY/WX    TMP DP  RH WIND       PRES   REMARKS
SPRINGFIELD    CLOUDY    73  68  84 S5        30.12R
JOPLIN         FAIR      69  68  96 SE3       30.08S
BRANSON          N/A     72  68  88 CALM      30.13R

$$
MOZ032>034-039>042-045>050-055>058-069>072-261200-
...CENTRAL MISSOURI...

CITY           SKY/WX    TMP DP  RH WIND       PRES   REMARKS
COLUMBIA       CLOUDY    72  72 100 E3        30.09R FOG
JEFFERSON CITY CLOUDY    72  71  97 CALM      30.07R
ROLLA          FAIR      71  67  87 S5        30.09R
SEDALIA        CLOUDY    71  69  93 N8        30.11R
WHITEMAN AFB   CLOUDY    69  69 100 NE9       30.09R
OSAGE BEACH    FAIR      68  67  96 CALM      30.10R

$$
MOZ051-052-059>065-261200-
...EAST CENTRAL MISSOURI...

CITY           SKY/WX    TMP DP  RH WIND       PRES   REMARKS
ST LOUIS INTL  MOCLDY    75  70  84 N9G17     30.08R
SPIRIT OF STL  FAIR      73  72  96 CALM      30.06R
ST CHARLES     FAIR      72  72 100 NE8       30.07R

$$
MOZ072>076-082>087-097>100-106>115-261200-
...SOUTH CENTRAL AND SOUTHEAST MISSOURI...

CITY           SKY/WX    TMP DP  RH WIND       PRES   REMARKS
CAPE GIRARDEAU FAIR      73  71  93 CALM      30.08R FOG
FARMINGTON     MOCLDY    72  71  97 CALM      30.11R
POPLAR BLUFF   FAIR      75  73  93 NE3       30.08R FOG
WEST PLAINS    FAIR      73  70  90 CALM      30.13R

$$




USA.gov is the U.S. government's official web portal to all federal, state and local government web resources and services.